User: anonymous   Login
Location: Unspecified
(0.0000°N, 0.0000°E)
Time: 22:28:21
(UTC+00:00)
Language:

COSMOS 2400 - Orbit

View from above orbital plane
View from above orbital plane
View from above satellite
View from above satellite

Ground track
Ground track

The orbit is defined by the following mean orbital elements,

1 27868U          26145.56656894 +.00000000 +00000-0 +15043-3 0 00007
2 27868  82.4721 344.0389 0022366 104.1434 256.2134 12.45189759    08
Epoch (UTC): 25 May 2026 13:35:51
Eccentricity: 0.0022366
inclination: 82.4721°
perigee height: 1467 km
apogee height: 1502 km
right ascension of ascending node: 344.0389°
argument of perigee: 104.1434°
revolutions per day: 12.45189759
mean anomaly at epoch: 256.2134°

The dashed part of the orbit path shows where the satellite is in the earth's shadow,  

DLR